owner,sensor,date,latitude,longitude,vertical_datum,wind_speed,wind_to_direction,wind_speed_of_gust,qcFlag 
TCOON,ioos:station:TCOON:146:1,2014-02-01T00:00:00Z,28.1324,-97.0345,0.0,5.0,104.0,5.5,'1111122,1111122,1111122' 
TCOON,ioos:station:TCOON:146:1,2014-02-01T01:00:00Z,28.1324,-97.0345,0.0,3.6,112.0,4.2,'1111122,1111122,1111122' 
TCOON,ioos:station:TCOON:146:1,2014-02-01T02:00:00Z,28.1324,-97.0345,0.0,5.1,118.0,6.0,'1111122,1111122,1111122' 
TCOON,ioos:station:TCOON:146:1,2014-02-01T03:00:00Z,28.1324,-97.0345,0.0,4.1,124.0,4.8,'1111122,1111122,1111122' 
TCOON,ioos:station:TCOON:146:1,2014-02-01T04:00:00Z,28.1324,-97.0345,0.0,5.0,121.0,5.4,'1111122,1111122,1111122' 
TCOON,ioos:station:TCOON:146:1,2014-02-01T05:00:00Z,28.1324,-97.0345,0.0,6.7,124.0,7.4,'1111122,1111122,1111122' 
TCOON,ioos:station:TCOON:146:1,2014-02-01T06:00:00Z,28.1324,-97.0345,0.0,4.7,145.0,5.2,'1111122,1111122,1111122' 
TCOON,ioos:station:TCOON:146:1,2014-02-01T07:00:00Z,28.1324,-97.0345,0.0,4.7,163.0,6.7,'1111122,1111122,1111122' 
TCOON,ioos:station:TCOON:146:1,2014-02-01T08:00:00Z,28.1324,-97.0345,0.0,5.7,156.0,6.5,'1111122,1111122,1111122' 
TCOON,ioos:station:TCOON:146:1,2014-02-01T09:00:00Z,28.1324,-97.0345,0.0,4.5,142.0,5.2,'1111122,1111122,1111122' 
TCOON,ioos:station:TCOON:146:1,2014-02-01T10:00:00Z,28.1324,-97.0345,0.0,4.5,145.0,5.4,'1111122,1111122,1111122' 
TCOON,ioos:station:TCOON:146:1,2014-02-01T11:00:00Z,28.1324,-97.0345,0.0,4.1,141.0,4.9,'1111122,1111122,1111122' 
TCOON,ioos:station:TCOON:146:1,2014-02-01T12:00:00Z,28.1324,-97.0345,0.0,3.3,153.0,4.5,'1111122,1111122,1111122' 
TCOON,ioos:station:TCOON:146:1,2014-02-01T13:00:00Z,28.1324,-97.0345,0.0,1.5,96.0,2.0,'1111122,1111122,1111122' 
TCOON,ioos:station:TCOON:146:1,2014-02-01T14:00:00Z,28.1324,-97.0345,0.0,2.5,111.0,2.9,'1111122,1111122,1111122' 
TCOON,ioos:station:TCOON:146:1,2014-02-01T15:00:00Z,28.1324,-97.0345,0.0,3.6,101.0,4.4,'1111122,1111122,1111122' 
TCOON,ioos:station:TCOON:146:1,2014-02-01T15:30:00Z,28.1324,-97.0345,0.0,3.6,105.0,4.2,'1111122,1111122,1111122' 
TCOON,ioos:station:TCOON:146:1,2014-02-01T17:00:00Z,28.1324,-97.0345,0.0,5.9,145.0,7.2,'1111122,1111122,1111122' 
TCOON,ioos:station:TCOON:146:1,2014-02-01T17:30:00Z,28.1324,-97.0345,0.0,4.5,144.0,6.0,'1111122,1111122,1111122' 
TCOON,ioos:station:TCOON:146:1,2014-02-01T18:00:00Z,28.1324,-97.0345,0.0,5.9,155.0,7.0,'1111122,1111122,1111122' 
TCOON,ioos:station:TCOON:146:1,2014-02-01T19:00:00Z,28.1324,-97.0345,0.0,6.8,152.0,7.7,'1111122,1111122,1111122' 
TCOON,ioos:station:TCOON:146:1,2014-02-01T20:00:00Z,28.1324,-97.0345,0.0,7.9,158.0,9.8,'1111122,1111122,1111122' 
TCOON,ioos:station:TCOON:146:1,2014-02-01T21:00:00Z,28.1324,-97.0345,0.0,6.4,149.0,7.8,'1111122,1111122,1111122' 
TCOON,ioos:station:TCOON:146:1,2014-02-01T22:00:00Z,28.1324,-97.0345,0.0,6.7,147.0,8.3,'1111122,1111122,1111122' 
TCOON,ioos:station:TCOON:146:1,2014-02-01T23:00:00Z,28.1324,-97.0345,0.0,7.2,144.0,8.6,'1111122,1111122,1111122' 
TCOON,ioos:station:TCOON:146:1,2014-02-02T00:00:00Z,28.1324,-97.0345,0.0,6.5,137.0,7.6,'1111122,1111122,1111122' 
TCOON,ioos:station:TCOON:146:1,2014-02-02T01:00:00Z,28.1324,-97.0345,0.0,6.1,139.0,6.8,'1111122,1111122,1111122' 
TCOON,ioos:station:TCOON:146:1,2014-02-02T02:00:00Z,28.1324,-97.0345,0.0,6.2,115.0,7.5,'1111122,1111122,1111122' 
TCOON,ioos:station:TCOON:146:1,2014-02-02T03:00:00Z,28.1324,-97.0345,0.0,4.9,100.0,5.3,'1111122,1111122,1111122' 
TCOON,ioos:station:TCOON:146:1,2014-02-02T04:00:00Z,28.1324,-97.0345,0.0,3.5,104.0,3.8,'1111122,1111122,1111122' 
TCOON,ioos:station:TCOON:146:1,2014-02-02T05:00:00Z,28.1324,-97.0345,0.0,4.4,99.0,4.8,'1111122,1111122,1111122' 
TCOON,ioos:station:TCOON:146:1,2014-02-02T06:00:00Z,28.1324,-97.0345,0.0,3.3,88.0,3.8,'1111122,1111122,1111122' 
TCOON,ioos:station:TCOON:146:1,2014-02-02T07:00:00Z,28.1324,-97.0345,0.0,4.4,93.0,4.9,'1111122,1111122,1111122' 
TCOON,ioos:station:TCOON:146:1,2014-02-02T08:00:00Z,28.1324,-97.0345,0.0,5.4,100.0,5.8,'1111122,1111122,1111122' 
TCOON,ioos:station:TCOON:146:1,2014-02-02T09:00:00Z,28.1324,-97.0345,0.0,4.3,100.0,4.9,'1111122,1111122,1111122' 
TCOON,ioos:station:TCOON:146:1,2014-02-02T10:00:00Z,28.1324,-97.0345,0.0,4.2,97.0,4.5,'1111122,1111122,1111122' 
TCOON,ioos:station:TCOON:146:1,2014-02-02T11:00:00Z,28.1324,-97.0345,0.0,5.1,102.0,5.9,'1111122,1111122,1111122' 
TCOON,ioos:station:TCOON:146:1,2014-02-02T12:00:00Z,28.1324,-97.0345,0.0,5.6,104.0,6.8,'1111122,1111122,1111122' 
TCOON,ioos:station:TCOON:146:1,2014-02-02T13:00:00Z,28.1324,-97.0345,0.0,5.3,91.0,5.7,'1111122,1111122,1111122' 
TCOON,ioos:station:TCOON:146:1,2014-02-02T14:00:00Z,28.1324,-97.0345,0.0,4.6,88.0,5.2,'1111122,1111122,1111122' 
TCOON,ioos:station:TCOON:146:1,2014-02-02T15:00:00Z,28.1324,-97.0345,0.0,3.7,74.0,4.3,'1111122,1111122,1111122' 
TCOON,ioos:station:TCOON:146:1,2014-02-02T16:00:00Z,28.1324,-97.0345,0.0,3.3,69.0,4.6,'1111122,1111122,1111122' 
TCOON,ioos:station:TCOON:146:1,2014-02-02T18:00:00Z,28.1324,-97.0345,0.0,11.5,352.0,13.1,'1111122,1111122,1111122' 
TCOON,ioos:station:TCOON:146:1,2014-02-02T19:00:00Z,28.1324,-97.0345,0.0,13.2,350.0,15.6,'1111122,1111122,1111122' 
TCOON,ioos:station:TCOON:146:1,2014-02-02T20:00:00Z,28.1324,-97.0345,0.0,10.5,355.0,12.2,'1111122,1111122,1111122' 
TCOON,ioos:station:TCOON:146:1,2014-02-02T21:00:00Z,28.1324,-97.0345,0.0,11.0,348.0,14.3,'1111122,1111122,1111122' 
TCOON,ioos:station:TCOON:146:1,2014-02-02T21:30:00Z,28.1324,-97.0345,0.0,10.3,340.0,12.6,'1111122,1111122,1111122' 
TCOON,ioos:station:TCOON:146:1,2014-02-02T22:00:00Z,28.1324,-97.0345,0.0,11.6,343.0,14.1,'1111122,1111122,1111122' 
TCOON,ioos:station:TCOON:146:1,2014-02-02T23:00:00Z,28.1324,-97.0345,0.0,9.9,339.0,11.7,'1111122,1111122,1111122' 
TCOON,ioos:station:TCOON:146:1,2014-02-03T00:00:00Z,28.1324,-97.0345,0.0,8.7,349.0,10.7,'1111122,1111122,1111122' 
TCOON,ioos:station:TCOON:146:1,2014-02-03T01:00:00Z,28.1324,-97.0345,0.0,8.1,354.0,10.6,'1111122,1111122,1111122' 
TCOON,ioos:station:TCOON:146:1,2014-02-03T02:00:00Z,28.1324,-97.0345,0.0,10.8,351.0,12.9,'1111122,1111122,1111122' 
TCOON,ioos:station:TCOON:146:1,2014-02-03T03:00:00Z,28.1324,-97.0345,0.0,9.3,359.0,11.5,'1111122,1111122,1111122' 
TCOON,ioos:station:TCOON:146:1,2014-02-03T05:00:00Z,28.1324,-97.0345,0.0,10.0,359.0,12.2,'1111122,1111122,1111122' 
TCOON,ioos:station:TCOON:146:1,2014-02-03T07:00:00Z,28.1324,-97.0345,0.0,8.5,346.0,11.2,'1111122,1111122,1111122' 
TCOON,ioos:station:TCOON:146:1,2014-02-03T08:00:00Z,28.1324,-97.0345,0.0,8.6,342.0,10.9,'1111122,1111122,1111122' 
TCOON,ioos:station:TCOON:146:1,2014-02-03T09:00:00Z,28.1324,-97.0345,0.0,8.6,347.0,10.5,'1111122,1111122,1111122' 
TCOON,ioos:station:TCOON:146:1,2014-02-03T11:00:00Z,28.1324,-97.0345,0.0,6.9,345.0,8.8,'1111122,1111122,1111122' 
TCOON,ioos:station:TCOON:146:1,2014-02-03T12:00:00Z,28.1324,-97.0345,0.0,7.7,18.0,9.7,'1111122,1111122,1111122' 
TCOON,ioos:station:TCOON:146:1,2014-02-03T12:30:00Z,28.1324,-97.0345,0.0,8.3,355.0,9.9,'1111122,1111122,1111122' 
TCOON,ioos:station:TCOON:146:1,2014-02-03T14:00:00Z,28.1324,-97.0345,0.0,6.1,350.0,7.8,'1111122,1111122,1111122' 
TCOON,ioos:station:TCOON:146:1,2014-02-03T15:00:00Z,28.1324,-97.0345,0.0,5.8,8.0,7.9,'1111122,1111122,1111122' 
TCOON,ioos:station:TCOON:146:1,2014-02-03T16:00:00Z,28.1324,-97.0345,0.0,3.1,25.0,4.7,'1111122,1111122,1111122' 
TCOON,ioos:station:TCOON:146:1,2014-02-03T18:00:00Z,28.1324,-97.0345,0.0,6.9,28.0,8.5,'1111122,1111122,1111122' 
TCOON,ioos:station:TCOON:146:1,2014-02-03T19:00:00Z,28.1324,-97.0345,0.0,4.5,42.0,6.4,'1111122,1111122,1111122' 
TCOON,ioos:station:TCOON:146:1,2014-02-03T20:00:00Z,28.1324,-97.0345,0.0,4.3,19.0,5.6,'1111122,1111122,1111122' 
TCOON,ioos:station:TCOON:146:1,2014-02-03T21:00:00Z,28.1324,-97.0345,0.0,3.6,31.0,5.2,'1111122,1111122,1111122' 
TCOON,ioos:station:TCOON:146:1,2014-02-03T22:00:00Z,28.1324,-97.0345,0.0,3.1,28.0,4.5,'1111122,1111122,1111122' 
TCOON,ioos:station:TCOON:146:1,2014-02-04T00:30:00Z,28.1324,-97.0345,0.0,5.1,12.0,6.5,'1111122,1111122,1111122' 
TCOON,ioos:station:TCOON:146:1,2014-02-04T02:00:00Z,28.1324,-97.0345,0.0,5.6,17.0,6.6,'1111122,1111122,1111122' 
TCOON,ioos:station:TCOON:146:1,2014-02-04T03:00:00Z,28.1324,-97.0345,0.0,6.0,15.0,7.7,'1111122,1111122,1111122' 
TCOON,ioos:station:TCOON:146:1,2014-02-04T04:00:00Z,28.1324,-97.0345,0.0,5.7,30.0,6.5,'1111122,1111122,1111122' 
TCOON,ioos:station:TCOON:146:1,2014-02-04T05:30:00Z,28.1324,-97.0345,0.0,5.7,50.0,7.2,'1111122,1111122,1111122' 
TCOON,ioos:station:TCOON:146:1,2014-02-04T06:00:00Z,28.1324,-97.0345,0.0,6.5,61.0,7.9,'1111122,1111122,1111122' 
TCOON,ioos:station:TCOON:146:1,2014-02-04T06:30:00Z,28.1324,-97.0345,0.0,6.2,65.0,8.3,'1111122,1111122,1111122' 
TCOON,ioos:station:TCOON:146:1,2014-02-04T07:00:00Z,28.1324,-97.0345,0.0,5.9,60.0,7.4,'1111122,1111122,1111122' 
TCOON,ioos:station:TCOON:146:1,2014-02-14T14:30:00Z,28.1324,-97.0345,0.0,3.4,155.0,4.5,'1111122,1111122,1111122' 
TCOON,ioos:station:TCOON:146:1,2014-02-14T15:00:00Z,28.1324,-97.0345,0.0,5.4,173.0,8.0,'1111122,1111122,1111122' 
TCOON,ioos:station:TCOON:146:1,2014-02-14T15:30:00Z,28.1324,-97.0345,0.0,7.2,196.0,10.5,'1111122,1111122,1111122' 
TCOON,ioos:station:TCOON:146:1,2014-02-14T16:00:00Z,28.1324,-97.0345,0.0,7.3,198.0,8.8,'1111122,1111122,1111122' 
TCOON,ioos:station:TCOON:146:1,2014-02-14T16:30:00Z,28.1324,-97.0345,0.0,9.9,202.0,11.9,'1111122,1111122,1111122' 
TCOON,ioos:station:TCOON:146:1,2014-02-14T17:00:00Z,28.1324,-97.0345,0.0,10.5,193.0,12.7,'1111122,1111122,1111122' 
TCOON,ioos:station:TCOON:146:1,2014-02-14T18:00:00Z,28.1324,-97.0345,0.0,5.5,209.0,7.5,'1111122,1111122,1111122' 
TCOON,ioos:station:TCOON:146:1,2014-02-14T18:30:00Z,28.1324,-97.0345,0.0,6.2,218.0,7.8,'1111122,1111122,1111122' 
TCOON,ioos:station:TCOON:146:1,2014-02-14T19:00:00Z,28.1324,-97.0345,0.0,5.2,215.0,6.0,'1111122,1111122,1111122' 
TCOON,ioos:station:TCOON:146:1,2014-02-14T19:30:00Z,28.1324,-97.0345,0.0,6.0,143.0,7.8,'1111122,1111122,1111122' 
TCOON,ioos:station:TCOON:146:1,2014-02-14T20:00:00Z,28.1324,-97.0345,0.0,7.4,144.0,8.2,'1111122,1111122,1111122' 
TCOON,ioos:station:TCOON:146:1,2014-02-14T20:30:00Z,28.1324,-97.0345,0.0,6.7,147.0,8.0,'1111122,1111122,1111122' 
TCOON,ioos:station:TCOON:146:1,2014-02-14T21:00:00Z,28.1324,-97.0345,0.0,7.2,144.0,8.1,'1111122,1111122,1111122' 
TCOON,ioos:station:TCOON:146:1,2014-02-14T21:30:00Z,28.1324,-97.0345,0.0,7.6,153.0,8.4,'1111122,1111122,1111122' 
TCOON,ioos:station:TCOON:146:1,2014-02-14T22:00:00Z,28.1324,-97.0345,0.0,6.4,156.0,7.7,'1111122,1111122,1111122' 
TCOON,ioos:station:TCOON:146:1,2014-02-14T22:30:00Z,28.1324,-97.0345,0.0,6.3,146.0,7.2,'1111122,1111122,1111122' 
TCOON,ioos:station:TCOON:146:1,2014-02-14T23:00:00Z,28.1324,-97.0345,0.0,6.1,147.0,6.6,'1111122,1111122,1111122' 
TCOON,ioos:station:TCOON:146:1,2014-02-15T00:00:00Z,28.1324,-97.0345,0.0,6.0,149.0,7.0,'1111122,1111122,1111122' 
TCOON,ioos:station:TCOON:146:1,2014-02-15T00:30:00Z,28.1324,-97.0345,0.0,3.4,148.0,4.6,'1111122,1111122,1111122' 
TCOON,ioos:station:TCOON:146:1,2014-02-15T01:00:00Z,28.1324,-97.0345,0.0,1.6,118.0,2.3,'1111122,1111122,1111122' 
TCOON,ioos:station:TCOON:146:1,2014-02-15T01:30:00Z,28.1324,-97.0345,0.0,1.9,118.0,3.1,'1111122,1111122,1111122' 
TCOON,ioos:station:TCOON:146:1,2014-02-15T02:00:00Z,28.1324,-97.0345,0.0,1.2,133.0,1.7,'1111122,1111122,1111122' 
TCOON,ioos:station:TCOON:146:1,2014-02-15T02:30:00Z,28.1324,-97.0345,0.0,2.0,67.0,3.1,'1111122,1111122,1111122' 
TCOON,ioos:station:TCOON:146:1,2014-02-15T03:00:00Z,28.1324,-97.0345,0.0,2.5,54.0,4.0,'1111122,1111122,1111122' 
TCOON,ioos:station:TCOON:146:1,2014-02-15T03:30:00Z,28.1324,-97.0345,0.0,2.2,82.0,3.0,'1111122,1111122,1111122' 
TCOON,ioos:station:TCOON:146:1,2014-02-15T04:00:00Z,28.1324,-97.0345,0.0,3.7,28.0,5.7,'1111122,1111122,1111122' 
TCOON,ioos:station:TCOON:146:1,2014-02-15T04:30:00Z,28.1324,-97.0345,0.0,2.8,48.0,3.4,'1111122,1111122,1111122' 
TCOON,ioos:station:TCOON:146:1,2014-02-15T05:00:00Z,28.1324,-97.0345,0.0,3.8,41.0,4.4,'1111122,1111122,1111122' 
TCOON,ioos:station:TCOON:146:1,2014-02-15T05:30:00Z,28.1324,-97.0345,0.0,3.6,32.0,4.3,'1111122,1111122,1111122' 
TCOON,ioos:station:TCOON:146:1,2014-02-15T06:00:00Z,28.1324,-97.0345,0.0,5.7,35.0,7.0,'1111122,1111122,1111122' 
TCOON,ioos:station:TCOON:146:1,2014-02-15T06:30:00Z,28.1324,-97.0345,0.0,3.9,50.0,4.4,'1111122,1111122,1111122' 
TCOON,ioos:station:TCOON:146:1,2014-02-15T07:00:00Z,28.1324,-97.0345,0.0,4.0,48.0,4.8,'1111122,1111122,1111122' 
TCOON,ioos:station:TCOON:146:1,2014-02-15T07:30:00Z,28.1324,-97.0345,0.0,3.4,30.0,3.9,'1111122,1111122,1111122' 
TCOON,ioos:station:TCOON:146:1,2014-02-15T08:00:00Z,28.1324,-97.0345,0.0,4.2,40.0,4.9,'1111122,1111122,1111122' 
TCOON,ioos:station:TCOON:146:1,2014-02-15T08:30:00Z,28.1324,-97.0345,0.0,4.8,42.0,5.4,'1111122,1111122,1111122' 
TCOON,ioos:station:TCOON:146:1,2014-02-15T09:00:00Z,28.1324,-97.0345,0.0,5.6,38.0,6.4,'1111122,1111122,1111122' 
TCOON,ioos:station:TCOON:146:1,2014-02-15T09:30:00Z,28.1324,-97.0345,0.0,5.1,35.0,6.0,'1111122,1111122,1111122' 
TCOON,ioos:station:TCOON:146:1,2014-02-15T14:00:00Z,28.1324,-97.0345,0.0,1.7,44.0,2.1,'1111122,1111122,1111122' 
TCOON,ioos:station:TCOON:146:1,2014-02-15T14:30:00Z,28.1324,-97.0345,0.0,1.8,55.0,3.2,'1111122,1111122,1111122' 
TCOON,ioos:station:TCOON:146:1,2014-02-15T15:00:00Z,28.1324,-97.0345,0.0,4.5,70.0,6.1,'1111122,1111122,1111122' 
TCOON,ioos:station:TCOON:146:1,2014-02-15T15:30:00Z,28.1324,-97.0345,0.0,6.5,77.0,8.2,'1111122,1111122,1111122' 
TCOON,ioos:station:TCOON:146:1,2014-02-15T16:00:00Z,28.1324,-97.0345,0.0,7.6,81.0,9.4,'1111122,1111122,1111122' 
TCOON,ioos:station:TCOON:146:1,2014-02-15T16:30:00Z,28.1324,-97.0345,0.0,7.3,86.0,8.9,'1111122,1111122,1111122' 
TCOON,ioos:station:TCOON:146:1,2014-02-15T17:00:00Z,28.1324,-97.0345,0.0,6.7,84.0,8.2,'1111122,1111122,1111122' 
TCOON,ioos:station:TCOON:146:1,2014-02-15T17:30:00Z,28.1324,-97.0345,0.0,6.0,87.0,7.0,'1111122,1111122,1111122' 
TCOON,ioos:station:TCOON:146:1,2014-02-15T18:00:00Z,28.1324,-97.0345,0.0,5.5,90.0,6.6,'1111122,1111122,1111122' 
TCOON,ioos:station:TCOON:146:1,2014-02-15T19:30:00Z,28.1324,-97.0345,0.0,4.6,105.0,5.5,'1111122,1111122,1111122' 
TCOON,ioos:station:TCOON:146:1,2014-02-15T21:00:00Z,28.1324,-97.0345,0.0,4.6,115.0,5.2,'1111122,1111122,1111122' 
TCOON,ioos:station:TCOON:146:1,2014-02-15T22:00:00Z,28.1324,-97.0345,0.0,4.3,107.0,4.9,'1111122,1111122,1111122' 
TCOON,ioos:station:TCOON:146:1,2014-02-15T23:00:00Z,28.1324,-97.0345,0.0,5.1,106.0,5.9,'1111122,1111122,1111122' 
TCOON,ioos:station:TCOON:146:1,2014-02-16T00:00:00Z,28.1324,-97.0345,0.0,5.3,108.0,6.0,'1111122,1111122,1111122' 
TCOON,ioos:station:TCOON:146:1,2014-02-16T01:00:00Z,28.1324,-97.0345,0.0,4.5,103.0,5.1,'1111122,1111122,1111122' 
TCOON,ioos:station:TCOON:146:1,2014-02-16T02:00:00Z,28.1324,-97.0345,0.0,3.8,110.0,4.2,'1111122,1111122,1111122' 
TCOON,ioos:station:TCOON:146:1,2014-02-16T03:00:00Z,28.1324,-97.0345,0.0,3.6,110.0,4.1,'1111122,1111122,1111122' 
TCOON,ioos:station:TCOON:146:1,2014-02-16T04:00:00Z,28.1324,-97.0345,0.0,2.8,130.0,3.2,'1111122,1111122,1111122' 
TCOON,ioos:station:TCOON:146:1,2014-02-16T05:00:00Z,28.1324,-97.0345,0.0,4.7,141.0,5.4,'1111122,1111122,1111122' 
TCOON,ioos:station:TCOON:146:1,2014-02-16T06:00:00Z,28.1324,-97.0345,0.0,6.0,149.0,7.5,'1111122,1111122,1111122' 
TCOON,ioos:station:TCOON:146:1,2014-02-16T07:00:00Z,28.1324,-97.0345,0.0,4.1,156.0,5.1,'1111122,1111122,1111122' 
TCOON,ioos:station:TCOON:146:1,2014-02-16T07:30:00Z,28.1324,-97.0345,0.0,3.5,158.0,4.1,'1111122,1111122,1111122' 
TCOON,ioos:station:TCOON:146:1,2014-02-16T09:00:00Z,28.1324,-97.0345,0.0,2.4,132.0,2.8,'1111122,1111122,1111122' 
TCOON,ioos:station:TCOON:146:1,2014-02-16T10:00:00Z,28.1324,-97.0345,0.0,2.8,136.0,3.1,'1111122,1111122,1111122' 
TCOON,ioos:station:TCOON:146:1,2014-02-16T11:00:00Z,28.1324,-97.0345,0.0,2.3,106.0,2.5,'1111122,1111122,1111122' 
TCOON,ioos:station:TCOON:146:1,2014-02-16T12:00:00Z,28.1324,-97.0345,0.0,2.2,123.0,3.0,'1111122,1111122,1111122' 
TCOON,ioos:station:TCOON:146:1,2014-02-16T13:00:00Z,28.1324,-97.0345,0.0,3.9,95.0,4.3,'1111122,1111122,1111122' 
TCOON,ioos:station:TCOON:146:1,2014-02-16T13:30:00Z,28.1324,-97.0345,0.0,3.2,91.0,4.0,'1111122,1111122,1111122' 
TCOON,ioos:station:TCOON:146:1,2014-02-16T14:00:00Z,28.1324,-97.0345,0.0,3.2,90.0,3.9,'1111122,1111122,1111122' 
TCOON,ioos:station:TCOON:146:1,2014-02-16T15:00:00Z,28.1324,-97.0345,0.0,2.9,100.0,3.3,'1111122,1111122,1111122' 
TCOON,ioos:station:TCOON:146:1,2014-02-16T16:00:00Z,28.1324,-97.0345,0.0,1.7,129.0,2.3,'1111122,1111122,1111122' 
TCOON,ioos:station:TCOON:146:1,2014-02-16T17:00:00Z,28.1324,-97.0345,0.0,2.9,131.0,3.8,'1111122,1111122,1111122' 
TCOON,ioos:station:TCOON:146:1,2014-02-16T18:00:00Z,28.1324,-97.0345,0.0,6.7,160.0,8.6,'1111122,1111122,1111122' 
TCOON,ioos:station:TCOON:146:1,2014-02-16T19:00:00Z,28.1324,-97.0345,0.0,5.7,154.0,7.9,'1111122,1111122,1111122' 
TCOON,ioos:station:TCOON:146:1,2014-02-16T19:30:00Z,28.1324,-97.0345,0.0,4.8,149.0,6.5,'1111122,1111122,1111122' 
TCOON,ioos:station:TCOON:146:1,2014-02-16T21:00:00Z,28.1324,-97.0345,0.0,5.5,145.0,6.6,'1111122,1111122,1111122' 
TCOON,ioos:station:TCOON:146:1,2014-02-16T22:00:00Z,28.1324,-97.0345,0.0,5.1,142.0,5.5,'1111122,1111122,1111122' 
TCOON,ioos:station:TCOON:146:1,2014-02-16T23:00:00Z,28.1324,-97.0345,0.0,4.9,126.0,5.6,'1111122,1111122,1111122' 
TCOON,ioos:station:TCOON:146:1,2014-02-17T00:00:00Z,28.1324,-97.0345,0.0,3.6,118.0,4.2,'1111122,1111122,1111122' 
TCOON,ioos:station:TCOON:146:1,2014-02-17T01:00:00Z,28.1324,-97.0345,0.0,3.9,111.0,4.4,'1111122,1111122,1111122' 
TCOON,ioos:station:TCOON:146:1,2014-02-17T03:00:00Z,28.1324,-97.0345,0.0,4.0,103.0,4.4,'1111122,1111122,1111122' 
TCOON,ioos:station:TCOON:146:1,2014-02-17T04:00:00Z,28.1324,-97.0345,0.0,2.9,117.0,3.4,'1111122,1111122,1111122' 
TCOON,ioos:station:TCOON:146:1,2014-02-17T05:00:00Z,28.1324,-97.0345,0.0,3.3,135.0,4.7,'1111122,1111122,1111122' 
TCOON,ioos:station:TCOON:146:1,2014-02-17T06:00:00Z,28.1324,-97.0345,0.0,4.4,143.0,5.6,'1111122,1111122,1111122' 
TCOON,ioos:station:TCOON:146:1,2014-02-17T07:00:00Z,28.1324,-97.0345,0.0,5.5,149.0,6.8,'1111122,1111122,1111122' 
TCOON,ioos:station:TCOON:146:1,2014-02-17T08:00:00Z,28.1324,-97.0345,0.0,5.9,159.0,7.3,'1111122,1111122,1111122' 
TCOON,ioos:station:TCOON:146:1,2014-02-17T09:00:00Z,28.1324,-97.0345,0.0,6.4,162.0,7.6,'1111122,1111122,1111122' 
TCOON,ioos:station:TCOON:146:1,2014-02-17T10:00:00Z,28.1324,-97.0345,0.0,6.4,162.0,8.0,'1111122,1111122,1111122' 
TCOON,ioos:station:TCOON:146:1,2014-02-17T10:30:00Z,28.1324,-97.0345,0.0,6.6,163.0,7.7,'1111122,1111122,1111122' 
TCOON,ioos:station:TCOON:146:1,2014-02-17T12:00:00Z,28.1324,-97.0345,0.0,7.5,172.0,10.5,'1111122,1111122,1111122' 
TCOON,ioos:station:TCOON:146:1,2014-02-17T13:00:00Z,28.1324,-97.0345,0.0,7.6,180.0,9.4,'1111122,1111122,1111122' 
TCOON,ioos:station:TCOON:146:1,2014-02-17T14:00:00Z,28.1324,-97.0345,0.0,6.8,173.0,10.0,'1111122,1111122,1111122' 
TCOON,ioos:station:TCOON:146:1,2014-02-17T14:30:00Z,28.1324,-97.0345,0.0,6.6,179.0,9.0,'1111122,1111122,1111122' 
TCOON,ioos:station:TCOON:146:1,2014-02-17T16:00:00Z,28.1324,-97.0345,0.0,8.0,178.0,11.9,'1111122,1111122,1111122' 
TCOON,ioos:station:TCOON:146:1,2014-02-17T17:00:00Z,28.1324,-97.0345,0.0,6.2,184.0,10.1,'1111122,1111122,1111122' 
TCOON,ioos:station:TCOON:146:1,2014-02-17T18:00:00Z,28.1324,-97.0345,0.0,6.4,160.0,10.9,'1111122,1111122,1111122' 
TCOON,ioos:station:TCOON:146:1,2014-02-17T19:00:00Z,28.1324,-97.0345,0.0,7.4,155.0,9.9,'1111122,1111122,1111122' 
TCOON,ioos:station:TCOON:146:1,2014-02-17T20:00:00Z,28.1324,-97.0345,0.0,5.9,145.0,8.2,'1111122,1111122,1111122' 
TCOON,ioos:station:TCOON:146:1,2014-02-17T21:00:00Z,28.1324,-97.0345,0.0,6.0,141.0,7.2,'1111122,1111122,1111122' 
TCOON,ioos:station:TCOON:146:1,2014-02-17T22:00:00Z,28.1324,-97.0345,0.0,5.4,125.0,6.5,'1111122,1111122,1111122' 
TCOON,ioos:station:TCOON:146:1,2014-02-17T23:00:00Z,28.1324,-97.0345,0.0,5.8,105.0,6.9,'1111122,1111122,1111122' 
TCOON,ioos:station:TCOON:146:1,2014-02-17T23:30:00Z,28.1324,-97.0345,0.0,6.8,94.0,7.8,'1111122,1111122,1111122' 
TCOON,ioos:station:TCOON:146:1,2014-02-18T01:00:00Z,28.1324,-97.0345,0.0,6.2,91.0,7.2,'1111122,1111122,1111122' 
TCOON,ioos:station:TCOON:146:1,2014-02-18T21:00:00Z,28.1324,-97.0345,0.0,6.6,151.0,7.8,'1111122,1111122,1111122' 
TCOON,ioos:station:TCOON:146:1,2014-02-19T15:00:00Z,28.1324,-97.0345,0.0,5.0,163.0,7.5,'1111122,1111122,1111122' 
TCOON,ioos:station:TCOON:146:1,2014-02-19T16:00:00Z,28.1324,-97.0345,0.0,6.1,158.0,7.8,'1111122,1111122,1111122' 
TCOON,ioos:station:TCOON:146:1,2014-02-19T17:00:00Z,28.1324,-97.0345,0.0,6.5,161.0,7.8,'1111122,1111122,1111122' 
TCOON,ioos:station:TCOON:146:1,2014-02-19T18:00:00Z,28.1324,-97.0345,0.0,7.0,156.0,9.1,'1111122,1111122,1111122' 
TCOON,ioos:station:TCOON:146:1,2014-02-19T19:00:00Z,28.1324,-97.0345,0.0,8.1,158.0,10.5,'1111122,1111122,1111122' 
TCOON,ioos:station:TCOON:146:1,2014-02-19T20:00:00Z,28.1324,-97.0345,0.0,8.6,157.0,10.5,'1111122,1111122,1111122' 
TCOON,ioos:station:TCOON:146:1,2014-02-19T21:00:00Z,28.1324,-97.0345,0.0,7.9,148.0,9.6,'1111122,1111122,1111122' 
TCOON,ioos:station:TCOON:146:1,2014-02-19T22:00:00Z,28.1324,-97.0345,0.0,7.7,140.0,9.1,'1111122,1111122,1111122' 
TCOON,ioos:station:TCOON:146:1,2014-02-19T23:00:00Z,28.1324,-97.0345,0.0,7.8,136.0,9.0,'1111122,1111122,1111122' 
TCOON,ioos:station:TCOON:146:1,2014-02-20T00:00:00Z,28.1324,-97.0345,0.0,8.2,135.0,9.5,'1111122,1111122,1111122' 
TCOON,ioos:station:TCOON:146:1,2014-02-20T01:00:00Z,28.1324,-97.0345,0.0,7.2,140.0,8.5,'1111122,1111122,1111122' 
TCOON,ioos:station:TCOON:146:1,2014-02-20T02:00:00Z,28.1324,-97.0345,0.0,7.1,139.0,8.2,'1111122,1111122,1111122' 
TCOON,ioos:station:TCOON:146:1,2014-02-20T03:00:00Z,28.1324,-97.0345,0.0,6.3,140.0,7.5,'1111122,1111122,1111122' 
TCOON,ioos:station:TCOON:146:1,2014-02-20T04:00:00Z,28.1324,-97.0345,0.0,4.5,141.0,5.5,'1111122,1111122,1111122' 
TCOON,ioos:station:TCOON:146:1,2014-02-20T05:00:00Z,28.1324,-97.0345,0.0,5.2,140.0,6.3,'1111122,1111122,1111122' 
TCOON,ioos:station:TCOON:146:1,2014-02-20T06:00:00Z,28.1324,-97.0345,0.0,7.1,146.0,8.3,'1111122,1111122,1111122' 
TCOON,ioos:station:TCOON:146:1,2014-02-20T07:00:00Z,28.1324,-97.0345,0.0,6.2,152.0,8.2,'1111122,1111122,1111122' 
TCOON,ioos:station:TCOON:146:1,2014-02-20T08:00:00Z,28.1324,-97.0345,0.0,6.3,157.0,7.8,'1111122,1111122,1111122' 
TCOON,ioos:station:TCOON:146:1,2014-02-20T09:00:00Z,28.1324,-97.0345,0.0,6.1,155.0,8.2,'1111122,1111122,1111122' 
TCOON,ioos:station:TCOON:146:1,2014-02-20T10:00:00Z,28.1324,-97.0345,0.0,5.5,157.0,7.0,'1111122,1111122,1111122' 
TCOON,ioos:station:TCOON:146:1,2014-02-20T11:00:00Z,28.1324,-97.0345,0.0,5.6,158.0,6.8,'1111122,1111122,1111122' 
TCOON,ioos:station:TCOON:146:1,2014-02-20T12:00:00Z,28.1324,-97.0345,0.0,5.5,160.0,7.4,'1111122,1111122,1111122' 
TCOON,ioos:station:TCOON:146:1,2014-02-20T13:00:00Z,28.1324,-97.0345,0.0,5.5,154.0,7.4,'1111122,1111122,1111122' 
TCOON,ioos:station:TCOON:146:1,2014-02-20T14:00:00Z,28.1324,-97.0345,0.0,4.3,142.0,5.5,'1111122,1111122,1111122' 
TCOON,ioos:station:TCOON:146:1,2014-02-20T15:00:00Z,28.1324,-97.0345,0.0,2.6,128.0,3.7,'1111122,1111122,1111122' 
TCOON,ioos:station:TCOON:146:1,2014-02-20T16:00:00Z,28.1324,-97.0345,0.0,4.8,127.0,8.5,'1111122,1111122,1111122' 
TCOON,ioos:station:TCOON:146:1,2014-02-20T17:00:00Z,28.1324,-97.0345,0.0,3.5,162.0,4.4,'1111122,1111122,1111122' 
TCOON,ioos:station:TCOON:146:1,2014-02-20T18:00:00Z,28.1324,-97.0345,0.0,4.2,146.0,5.4,'1111122,1111122,1111122' 
TCOON,ioos:station:TCOON:146:1,2014-02-20T19:00:00Z,28.1324,-97.0345,0.0,1.3,127.0,1.8,'1111122,1111122,1111122' 
TCOON,ioos:station:TCOON:146:1,2014-02-20T20:00:00Z,28.1324,-97.0345,0.0,2.0,117.0,3.3,'1111122,1111122,1111122' 
TCOON,ioos:station:TCOON:146:1,2014-02-20T21:00:00Z,28.1324,-97.0345,0.0,2.9,119.0,4.7,'1111122,1111122,1111122' 
TCOON,ioos:station:TCOON:146:1,2014-02-20T22:00:00Z,28.1324,-97.0345,0.0,2.9,115.0,3.5,'1111122,1111122,1111122' 